Location: Stockholm
(59.3333°N, 18.0500°E)
Time: 02:44:14
(UTC+02:00)

ISS - Pass Details

Date: 17 May 2021
Orbit: 417 x 422 km, 51.6° (Epoch: 16 June)

Event Time Altitude Azimuth Distance (km) Brightness Sun altitude
Rises 23:41:40 0° 246° (WSW) 2,367 0.0 -10.1°
Reaches altitude 10° 23:44:02 10° 231° (SW) 1,504 -1.2 -10.2°
Maximum altitude 23:46:44 22° 178° (S) 966 -2.5 -10.3°
Drops below altitude 10° 23:49:26 10° 125° (SE) 1,507 -1.4 -10.3°
Enters shadow 23:50:00 - 120° (ESE) 1,698 -1.1 -10.3°
